Miscellaneous Local Product
Issued by NWS North Platte, NE

Home | Current Version | Previous Version | Graphics & Text | Print | Product List | Glossary On
Versions: 1 2 3 4 5 6 7 8 9 10 11 12 13 14 15 16 17 18 19 20 21 22 23 24 25 26 27 28 29 30 31 32 33 34 35 36 37 38 39 40 41 42 43 44 45 46 47 48 49 50
000
AXUS43 KLBF 260810
MISLBF


WESTERN AND NORTH CENTRAL NEBRASKA HOURLY WEATHER ROUNDUP
NATIONAL WEATHER SERVICE NORTH PLATTE NE
200 AM CST MON JAN 26 2015

***STATIONS NOT REPORTING VARIABLES SUCH AS SKY/WEATHER OR
PRESSURE ARE PROVIDED BY THE NEBRASKA DEPARTMENT OF
ROADS...RAWS...AND APRS NETWORKS...AND ARE NOT UNDER
NATIONAL WEATHER SERVICE QUALITY CONTROL***

...OBSERVATIONS IN AND NEAR THE EASTERN PANHANDLE OF NEBRASKA...

CITY           SKY/WX    TMP DP  RH WIND       PRES   REMARKS
PINE RIDGE     MOCLDY    39  30  70 W5        30.02S
CHADRON        MOCLDY    43  30  60 NW5       30.05R
ALLIANCE       MOCLDY    36  30  79 W13       30.06S WCI  27
SIDNEY         MOCLDY    43  30  60 W16       30.12S
$$

...OBSERVATIONS IN NORTH CENTRAL NEBRASKA...

CITY           SKY/WX    TMP DP  RH WIND       PRES   REMARKS
VALENTINE      CLEAR     30  28  92 SW7       29.94S WCI  23
THEDFORD       CLEAR     40  33  74 W9        29.98S WCI  35
AINSWORTH      CLEAR     38  32  80 W9        29.93F WCI  31
O`NEILL        MOCLDY    33  31  90 SW8       29.91F WCI  26
ORD            CLEAR     30  25  81 CALM      29.95F
BROKEN BOW     CLEAR     36  27  69 CALM      29.96F
$$

...OBSERVATIONS IN SOUTHWEST NEBRASKA AND FAR NORTHEAST COLORADO...

CITY           SKY/WX    TMP DP  RH WIND       PRES   REMARKS
WRAY           FAIR      38  31  76 W10       30.10F WCI  31
HOLYOKE        FAIR      43  32  65 W14       30.09S
IMPERIAL       CLEAR     41  30  65 NW14      30.06S
OGALLALA       PTCLDY    36  32  84 W8        30.06S WCI  30
NORTH PLATTE   CLEAR     32  27  81 NW10      30.01S WCI  24
MCCOOK         PTCLDY    35  29  78 W13       30.03F WCI  26
LEXINGTON      CLEAR     32  24  74 W5        30.00S WCI  27
$$

...NORTH PLATTE AREA...

CITY           SKY/WX    TMP DP  RH WIND       PRES   REMARKS
AIRPORT        CLEAR     32  27  81 NW10      30.01S WCI  24
$$

...SOME WEATHER OBSERVATIONS FROM AROUND THE REGION...

CITY           SKY/WX    TMP DP  RH WIND       PRES   REMARKS
DENVER         PTCLDY    40  25  55 SW8       30.20F WCI  34
LARAMIE        PTCLDY    28  21  75 W3        30.29S
CHEYENNE       MOCLDY    48  23  37 NW16G28   30.21S
SCOTTSBLUFF    CLOUDY    39  32  76 NW15      30.11F WCI  31
RAPID CITY     PTCLDY    52  30  43 NW16      29.96R
PIERRE         PTCLDY    36  28  73 SW10      29.85F WCI  28
WINNER         FAIR      43  33  68 W12       29.89F
SIOUX FALLS    FAIR      33  31  92 SW9       29.87F WCI  25
OMAHA          CLEAR     27  25  92 SE9       30.02F WCI  18
GRAND ISLAND   PTCLDY    32  27  81 S10       30.00F WCI  24
KANSAS CITY    CLEAR     29  27  92 CALM      30.09S
WICHITA        PTCLDY    27  24  89 W5        30.14S WCI  22
HAYS           CLEAR     30  18  59 SW6       30.08F WCI  24
LIBERAL        FAIR      36  27  69 W12       30.17S WCI  27
GOODLAND       CLEAR     39  30  70 W16       30.11F WCI  30
$$



USA.gov is the U.S. government's official web portal to all federal, state and local government web resources and services.